Location: Im Fang
(46.6019°N, 7.2397°E)
Time: 14:35:30
(UTC+00:00)

ISS - Visible Passes

Search period start: 25 February 2021 00:00
Search period end: 07 March 2021 00:00
Orbit: 417 x 422 km, 51.6° (Epoch: 26 February)

Date Brightness Start Highest point End Pass type
(mag) Time Alt. Az. Time Alt. Az. Time Alt. Az.
25 Feb -1.6 03:50:13 26° E 03:50:13 26° E 03:52:09 10° ENE visible
25 Feb -3.4 05:23:12 15° W 05:25:46 51° NNW 05:29:05 10° ENE visible
26 Feb -3.8 04:37:43 54° W 04:38:17 68° NNW 04:41:39 10° ENE visible
27 Feb -2.1 03:52:10 33° ENE 03:52:10 33° ENE 03:54:11 10° ENE visible
27 Feb -2.8 05:25:08 13° WNW 05:27:52 36° N 05:31:01 10° ENE visible
28 Feb -0.2 03:06:33 11° ENE 03:06:33 11° ENE 03:06:41 10° ENE visible
28 Feb -3.0 04:39:31 35° NW 04:40:18 41° NNW 04:43:31 10° ENE visible
01 Mar -2.2 03:53:52 33° NE 03:53:52 33° NE 03:56:02 10° ENE visible
01 Mar -2.5 05:26:53 10° WNW 05:29:59 33° N 05:33:05 10° ENE visible
02 Mar -0.4 03:08:11 13° ENE 03:08:11 13° ENE 03:08:33 10° ENE visible
02 Mar -2.6 04:41:08 25° NW 04:42:21 33° N 04:45:28 10° ENE visible
03 Mar -2.2 03:55:25 32° NNE 03:55:25 32° NNE 03:57:53 10° ENE visible
03 Mar -2.7 05:28:50 10° WNW 05:32:02 39° NNE 05:35:13 10° E visible
04 Mar -0.5 03:09:43 14° NE 03:09:43 14° NE 03:10:20 10° ENE visible
04 Mar -2.5 04:42:40 21° NW 04:44:24 35° N 04:47:32 10° ENE visible
05 Mar -2.4 03:56:57 33° N 03:56:57 33° N 03:59:51 10° ENE visible
05 Mar -3.4 05:30:35 10° WNW 05:33:57 63° NNE 05:37:16 10° ESE visible
06 Mar -0.7 03:11:15 16° NE 03:11:15 16° NE 03:12:12 10° ENE visible
06 Mar -3.0 04:44:12 19° NW 04:46:21 48° NNE 04:49:38 10° E visible
